KC2ASA Weather Reports


time (UTC)temp
C
wind
direction
speed
KPH
gust
KPH
rain 1hr
cm
rain 24hr
cm
rain mn
cm
humidity
%
barometer
mb
20260506024536 22 210 3.2 12.9 0.00 0.00 0.00 52 1009.1
20260506023033 22 212 6.4 9.7 0.00 0.00 0.00 49 1009.1
20260506021536 22 229 4.8 12.9 0.00 0.00 0.00 48 1009.0
20260506020032 22 222 3.2 9.7 0.00 0.00 0.00 47 1008.9
20260506014530 23 217 1.6 6.4 0.00 0.00 0.00 46 1008.8
20260506013033 23 217 3.2 8.0 0.00 0.00 0.00 45 1008.6
20260506011548 23 218 4.8 20.9 0.00 0.00 0.00 44 1008.5
20260506010029 23 215 1.6 9.7 0.00 0.00 0.00 42 1008.3
20260506004539 23 228 0.0 4.8 0.00 0.00 0.00 41 1008.1
20260506003030 24 231 1.6 8.0 0.00 0.00 0.00 39 1008.1
20260506001530 23 222 1.6 6.4 0.00 0.00 0.00 39 1007.9
20260506000026 24 313 0.0 6.4 0.00 0.00 0.00 39 1007.8
20260505234529 25 229 3.2 14.5 0.00 0.00 0.00 36 1007.6
20260505233031 25 219 1.6 12.9 0.00 0.00 0.00 36 1007.6
20260505231529 25 224 1.6 11.3 0.00 0.00 0.00 35 1007.3
20260505230024 25 232 3.2 16.1 0.00 0.00 0.00 34 1007.3
20260505224521 26 211 1.6 9.7 0.00 0.00 0.00 34 1007.1
20260505223021 26 222 1.6 11.3 0.00 0.00 0.00 32 1007.0
20260505221519 26 256 6.4 17.7 0.00 0.00 0.00 31 1006.8
20260505220040 26 224 9.7 24.1 0.00 0.00 0.00 31 1006.6
20260505214525 27 219 1.6 8.0 0.00 0.00 0.00 35 1006.8
20260505213020 26 210 3.2 9.7 0.00 0.00 0.00 34 1006.7
20260505211514 27 228 8.0 22.5 0.00 0.00 0.00 33 1006.3
20260505210013 27 238 6.4 22.5 0.00 0.00 0.00 34 1006.4
20260505204511 27 225 3.2 17.7 0.00 0.00 0.00 34 1006.2
20260505203012 27 222 4.8 14.5 0.00 0.00 0.00 33 1006.5
20260505201510 27 243 6.4 22.5 0.00 0.00 0.00 33 1006.7
20260505200009 27 225 6.4 19.3 0.00 0.00 0.00 34 1006.6
20260505194516 27 229 11.3 19.3 0.00 0.00 0.00 33 1006.6
20260505193006 27 201 8.0 17.7 0.00 0.00 0.00 34 1007.0
20260505191505 27 238 8.0 20.9 0.00 0.00 0.00 34 1007.2
20260505190005 27 228 4.8 17.7 0.00 0.00 0.00 37 1007.2
20260505184501 27 224 8.0 19.3 0.00 0.00 0.00 35 1007.4
20260505183104 27 248 6.4 22.5 0.00 0.00 0.00 37 1007.7
20260505181607 27 198 6.4 20.9 0.00 0.00 0.00 38 1008.0
20260505180056 27 200 4.8 16.1 0.00 0.00 0.00 40 1008.0
20260505174554 26 253 8.0 20.9 0.00 0.00 0.00 41 1008.1
20260505173052 26 231 8.0 19.3 0.00 0.00 0.00 41 1008.1
20260505171551 26 204 8.0 19.3 0.00 0.00 0.00 42 1008.3
20260505170048 26 212 3.2 14.5 0.00 0.00 0.00 41 1008.4
20260505164556 26 211 4.8 16.1 0.00 0.00 0.00 42 1008.6
20260505163044 26 236 1.6 9.7 0.00 0.00 0.00 44 1008.8
20260505161550 26 232 4.8 12.9 0.00 0.00 0.00 44 1009.1
20260505153033 25 208 8.0 16.1 0.00 0.00 0.00 43 1009.7
20260505151530 25 222 1.6 14.5 0.00 0.00 0.00 47 1009.7
20260505124612 17 228 0.0 1.6 0.00 0.00 0.00 79 1010.4
20260505123059 15 125 0.0 1.6 0.00 0.00 0.00 88 1010.4
20260505121550 13 225 0.0 1.6 0.00 0.00 0.00 94 1010.7
20260505120059 11 224 0.0 0.0 0.00 0.00 0.00 95 1010.8
20260505114543 10 216 0.0 0.0 0.00 0.00 0.00 94 1010.6
20260505113045 -17 0.0 0.0 0.00 0.00 0.00 1010.2
20260505111535 -17 0.0 0.0 0.00 0.00 0.00 1010.3
20260505101518 -17 0.0 0.0 0.00 0.00 0.00 1010.4
20260505100016 -17 0.0 0.0 0.00 0.00 0.00 1010.2
20260505094511 -17 0.0 0.0 0.00 0.00 0.00 1010.2
20260505093004 -17 0.0 0.0 0.00 0.00 0.00 1009.9
20260505091600 -17 0.0 0.0 0.00 0.00 0.00 1009.6
20260505090056 -17 0.0 0.0 0.00 0.00 0.00 1009.6
20260505084554 -17 0.0 0.0 0.00 0.00 0.00 1009.6
20260505083052 -17 0.0 0.0 0.00 0.00 0.00 1009.6
20260505081549 -17 0.0 0.0 0.00 0.00 0.00 1009.7
20260505080040 -17 0.0 0.0 0.00 0.00 0.00 1009.7
20260505074535 -17 0.0 0.0 0.00 0.00 0.00 1009.7
20260505073033 -17 0.0 0.0 0.00 0.00 0.00 1009.8
20260505071529 -17 0.0 0.0 0.00 0.00 0.00 1009.7
20260505070028 -17 0.0 0.0 0.00 0.00 0.00 1009.7
20260505064519 -17 0.0 0.0 0.00 0.00 0.00 1009.6
20260505063013 -17 0.0 0.0 0.00 0.00 0.00 1009.8
20260505061512 -17 0.0 0.0 0.00 0.00 0.00 1009.9
20260505060005 -17 0.0 0.0 0.00 0.00 0.00 1010.0
20260505054602 -17 0.0 0.0 0.00 0.00 0.00 1010.1
20260505053114 10 207 0.0 0.0 0.00 0.00 0.00 81 1010.1
20260505051553 10 207 0.0 0.0 0.00 0.00 0.00 80 1010.2
20260505041546 11 204 0.0 1.6 0.00 0.00 0.00 77 1010.3
20260505040044 11 225 0.0 1.6 0.00 0.00 0.00 76 1010.4
20260505034554 11 226 0.0 1.6 0.00 0.00 0.00 76 1010.4
20260505033050 11 225 0.0 1.6 0.00 0.00 0.00 75 1010.4
20260505031542 11 225 0.0 1.6 0.00 0.00 0.00 75 1010.5
20260505030039 12 225 0.0 1.6 0.00 0.00 0.00 74 1010.5